Location: Sobotiste
(48.7170°N, 17.4000°E)
Time: 19:10:27
(UTC+02:00)

CUTE-I - Pass Details

Date: 15 March 2026
Orbit: 804 x 818 km, 98.7° (Epoch: 18 April)

Event Time Altitude Azimuth Distance (km) Brightness Sun altitude
Rises 19:01:46 0° 224° (SW) 3,319 ? -11.7°
Reaches altitude 10° 19:06:12 10° 260° (W) 2,392 ? -12.4°
Maximum altitude 19:07:37 11° 275° (W) 2,323 ? -12.6°
Drops below altitude 10° 19:09:02 10° 291° (WNW) 2,395 ? -12.9°
Sets 19:13:30 0° 327° (NNW) 3,331 ? -13.6°
